CT2IRK-11 Weather Reports


Display with metric or nautical units.
time (UTC)temp
F
wind
direction
speed
MPH
gust
MPH
rain 1hr
in
rain 24hr
in
rain mn
in
humidity
%
barometer
mb
20200708012437 64 176 3.0 8.0 0.00 0.00 0.00 99 1006.6
20200708012215 64 180 3.0 8.0 0.00 0.00 0.00 99 1006.6
20200708011937 64 173 2.0 8.0 0.00 0.00 0.00 99 1006.6
20200708011715 64 217 2.0 8.0 0.00 0.00 0.00 99 1006.7
20200708011436 64 150 0.0 8.0 0.00 0.00 0.00 99 1006.7
20200708011213 64 196 2.0 8.0 0.00 0.00 0.00 99 1006.7
20200708010936 64 222 0.0 8.0 0.00 0.00 0.00 99 1006.7
20200708010714 64 116 0.0 8.0 0.00 0.00 0.00 99 1006.7
20200708010437 64 195 2.0 8.0 0.00 0.00 0.00 99 1006.7
20200708010215 64 200 2.0 8.0 0.00 0.00 0.00 99 1006.7
20200708005937 64 170 3.0 8.0 0.00 0.00 0.00 99 1006.7
20200708005713 64 161 2.0 8.0 0.00 0.00 0.00 99 1006.7
20200708005437 64 188 3.0 8.0 0.00 0.00 0.00 99 1006.7
20200708005214 65 210 3.0 8.0 0.00 0.00 0.00 99 1006.8
20200708004936 65 171 2.0 8.0 0.00 0.00 0.00 99 1006.8
20200708004715 65 176 2.0 8.0 0.00 0.00 0.00 99 1006.8
20200708004437 65 162 2.0 8.0 0.00 0.00 0.00 99 1006.8
20200708004215 65 164 2.0 8.0 0.00 0.00 0.00 99 1006.8
20200708003936 65 176 2.0 8.0 0.00 0.00 0.00 99 1007.0
20200708003713 65 202 3.0 8.0 0.00 0.00 0.00 99 1007.0
20200708003435 65 181 3.0 8.0 0.00 0.00 0.00 99 1007.0
20200708003214 65 213 4.0 8.0 0.00 0.00 0.00 99 1007.0
20200708002936 65 206 4.0 8.0 0.00 0.00 0.00 99 1007.0
20200708002715 65 211 3.0 8.0 0.00 0.00 0.00 99 1006.8
20200708002436 65 176 5.0 8.0 0.00 0.00 0.00 99 1006.8
20200708002213 65 226 5.0 8.0 0.00 0.00 0.00 99 1006.8
20200708001937 65 187 5.0 8.0 0.00 0.00 0.00 99 1006.8
20200708001714 65 197 5.0 8.0 0.00 0.00 0.00 99 1006.8
20200708001436 65 175 4.0 8.0 0.00 0.00 0.00 99 1006.9
20200708001213 65 197 4.0 8.0 0.00 0.00 0.00 99 1006.9
20200708001011 65 166 4.0 8.0 0.00 0.00 0.00 99 1006.9
20200708000714 65 183 4.0 8.0 0.00 0.00 0.00 99 1006.9
20200708000435 65 171 4.0 8.0 0.00 0.00 0.00 99 1007.0
20200708000214 65 238 3.0 8.0 0.00 0.00 0.00 99 1007.0
20200707235936 65 180 4.0 8.0 0.00 0.00 0.00 99 1007.0
20200707235713 65 180 4.0 8.0 0.00 0.00 0.00 99 1007.0
20200707235437 65 205 4.0 8.0 0.00 0.00 0.00 99 1007.0
20200707235215 65 213 4.0 8.0 0.00 0.00 0.00 99 1007.1
20200707234937 65 167 3.0 8.0 0.00 0.00 0.00 99 1007.1
20200707234714 65 205 3.0 8.0 0.00 0.00 0.00 99 1007.1
20200707234435 65 162 4.0 8.0 0.00 0.00 0.00 99 1007.1
20200707234215 65 225 5.0 8.0 0.00 0.00 0.00 99 1007.1
20200707233937 65 202 4.0 8.0 0.00 0.00 0.00 99 1007.1
20200707233714 65 222 5.0 8.0 0.00 0.00 0.00 99 1007.1
20200707233435 66 181 4.0 8.0 0.00 0.00 0.00 99 1007.1
20200707233213 66 215 4.0 8.0 0.00 0.00 0.00 99 1007.1
20200707232937 66 201 4.0 8.0 0.00 0.00 0.00 99 1007.1
20200707232713 66 196 5.0 8.0 0.00 0.00 0.00 99 1007.1
20200707232437 66 189 4.0 8.0 0.00 0.00 0.00 99 1007.1
20200707232214 66 153 5.0 8.0 0.00 0.00 0.00 99 1007.1
20200707231935 66 195 6.0 8.0 0.00 0.00 0.00 99 1007.1
20200707231715 66 168 5.0 7.0 0.00 0.00 0.00 99 1007.0
20200707231436 67 180 4.0 7.0 0.00 0.00 0.00 99 1007.0
20200707231213 67 192 4.0 7.0 0.00 0.00 0.00 99 1007.0
20200707230935 67 168 4.0 7.0 0.00 0.00 0.00 99 1007.0
20200707230713 67 182 5.0 7.0 0.00 0.00 0.00 99 1007.0
20200707230437 67 175 6.0 7.0 0.00 0.00 0.00 99 1007.1
20200707230213 67 183 5.0 6.0 0.00 0.00 0.00 99 1007.1
20200707225935 67 188 5.0 11.0 0.00 0.00 0.00 99 1007.1
20200707225713 67 213 5.0 11.0 0.00 0.00 0.00 99 1007.1
20200707225435 67 180 5.0 11.0 0.00 0.00 0.00 99 1007.1
20200707225214 67 194 4.0 11.0 0.00 0.00 0.00 99 1007.1
20200707224936 67 190 5.0 11.0 0.00 0.00 0.00 99 1007.0
20200707224714 67 193 3.0 11.0 0.00 0.00 0.00 99 1007.0
20200707224436 68 200 5.0 11.0 0.00 0.00 0.00 99 1007.0
20200707224213 68 210 3.0 11.0 0.00 0.00 0.00 99 1007.0
20200707223935 68 189 4.0 11.0 0.00 0.00 0.00 99 1007.1
20200707223714 68 198 4.0 11.0 0.00 0.00 0.00 99 1007.1
20200707223436 68 174 5.0 11.0 0.00 0.00 0.00 99 1007.1
20200707223213 68 191 5.0 11.0 0.00 0.00 0.00 99 1007.1
20200707222936 68 167 4.0 11.0 0.00 0.00 0.00 99 1007.1
20200707222713 68 143 5.0 11.0 0.00 0.00 0.00 99 1007.2
20200707222437 68 168 5.0 11.0 0.00 0.00 0.00 99 1007.2
20200707222215 68 202 4.0 11.0 0.00 0.00 0.00 99 1007.2
20200707221935 68 177 4.0 11.0 0.00 0.00 0.00 99 1007.2
20200707221713 69 187 5.0 11.0 0.00 0.00 0.00 99 1007.1
20200707221436 69 180 4.0 11.0 0.00 0.00 0.00 99 1007.0
20200707221213 69 202 5.0 11.0 0.00 0.00 0.00 99 1007.0
20200707220936 69 190 5.0 11.0 0.00 0.00 0.00 99 1007.0
20200707220714 69 184 6.0 11.0 0.00 0.00 0.00 99 1007.0
20200707220435 70 181 4.0 11.0 0.00 0.00 0.00 99 1007.0
20200707220213 70 193 5.0 11.0 0.00 0.00 0.00 99 1006.9
20200707220001 70 160 5.0 11.0 0.00 0.00 0.00 99 1006.9
20200707215935 70 160 5.0 11.0 0.00 0.00 0.00 99 1006.9
20200707215501 70 167 6.0 11.0 0.00 0.00 0.00 99 1006.9
20200707215436 70 167 6.0 11.0 0.00 0.00 0.00 99 1006.9
20200707215001 71 177 6.0 11.0 0.00 0.00 0.00 99 1006.9
20200707214935 71 177 6.0 11.0 0.00 0.00 0.00 99 1006.9
20200707214500 71 180 4.0 11.0 0.00 0.00 0.00 99 1006.9
20200707214436 71 180 4.0 11.0 0.00 0.00 0.00 99 1006.9
20200707214000 71 180 5.0 11.0 0.00 0.00 0.00 99 1006.7
20200707213936 71 180 5.0 11.0 0.00 0.00 0.00 99 1006.7
20200707213501 71 204 4.0 11.0 0.00 0.00 0.00 99 1006.7
20200707213435 71 204 4.0 11.0 0.00 0.00 0.00 99 1006.7
20200707213000 72 210 5.0 11.0 0.00 0.00 0.00 99 1006.7
20200707212935 72 210 5.0 11.0 0.00 0.00 0.00 99 1006.7
20200707212435 72 190 4.0 11.0 0.00 0.00 0.00 99 1006.6
20200707212001 72 160 4.0 11.0 0.00 0.00 0.00 99 1006.6
20200707211935 72 160 4.0 11.0 0.00 0.00 0.00 99 1006.6
20200707211501 72 180 4.0 11.0 0.00 0.00 0.00 99 1006.6
20200707211434 72 180 4.0 11.0 0.00 0.00 0.00 99 1006.6
20200707211000 73 165 3.0 11.0 0.00 0.00 0.00 99 1006.6
20200707210936 73 165 3.0 11.0 0.00 0.00 0.00 99 1006.6
20200707210500 73 199 5.0 11.0 0.00 0.00 0.00 99 1006.6
20200707210435 73 199 5.0 11.0 0.00 0.00 0.00 99 1006.6
20200707205935 73 208 4.0 11.0 0.00 0.00 0.00 99 1006.5
20200707205500 74 163 5.0 11.0 0.00 0.00 0.00 99 1006.5
20200707205436 74 163 5.0 11.0 0.00 0.00 0.00 99 1006.5
20200707205001 74 180 4.0 11.0 0.00 0.00 0.00 99 1006.3
20200707204934 74 180 4.0 11.0 0.00 0.00 0.00 99 1006.3
20200707204435 74 180 4.0 11.0 0.00 0.00 0.00 99 1006.3
20200707204000 75 192 6.0 11.0 0.00 0.00 0.00 99 1006.1
20200707203935 75 192 6.0 11.0 0.00 0.00 0.00 99 1006.1
20200707203501 75 179 6.0 11.0 0.00 0.00 0.00 99 1006.1
20200707203434 75 179 6.0 11.0 0.00 0.00 0.00 99 1006.1
20200707202935 76 184 5.0 11.0 0.00 0.00 0.00 99 1006.0
20200707202501 77 203 5.0 11.0 0.00 0.00 0.00 99 1005.9
20200707202434 77 203 5.0 11.0 0.00 0.00 0.00 99 1005.9
20200707202000 78 242 6.0 11.0 0.00 0.00 0.00 99 1005.9
20200707201934 78 242 6.0 11.0 0.00 0.00 0.00 99 1005.9
20200707201435 79 169 5.0 11.0 0.00 0.00 0.00 99 1005.7
20200707201001 79 216 4.0 11.0 0.00 0.00 0.00 99 1005.7
20200707200934 79 216 4.0 11.0 0.00 0.00 0.00 99 1005.7
20200707200459 80 209 5.0 11.0 0.00 0.00 0.00 99 1005.7
20200707200435 80 209 5.0 11.0 0.00 0.00 0.00 99 1005.7
20200707195935 81 181 4.0 11.0 0.00 0.00 0.00 99 1005.7
20200707195500 81 180 5.0 11.0 0.00 0.00 0.00 99 1005.7
20200707195435 81 180 5.0 11.0 0.00 0.00 0.00 99 1005.7
20200707195042 82 215 5.0 11.0 0.00 0.00 0.00 99 1005.6
20200707195017 82 215 5.0 11.0 0.00 0.00 0.00 99 1005.6
20200707194541 83 228 6.0 11.0 0.00 0.00 0.00 99 1005.6
20200707194517 83 228 6.0 11.0 0.00 0.00 0.00 99 1005.6
20200707194016 83 205 4.0 11.0 0.00 0.00 0.00 99 1005.5
20200707193542 84 196 5.0 11.0 0.00 0.00 0.00 99 1005.5
20200707193518 84 196 5.0 11.0 0.00 0.00 0.00 99 1005.5
20200707193042 84 191 4.0 11.0 0.00 0.00 0.00 99 1005.5
20200707193017 84 191 4.0 11.0 0.00 0.00 0.00 99 1005.5
20200707192542 85 202 4.0 11.0 0.00 0.00 0.00 99 1005.5
20200707192516 85 202 4.0 11.0 0.00 0.00 0.00 99 1005.5
20200707192042 86 222 4.0 11.0 0.00 0.00 0.00 99 1005.5
20200707192016 86 222 4.0 11.0 0.00 0.00 0.00 99 1005.5
20200707191516 87 196 4.0 11.0 0.00 0.00 0.00 99 1005.6
20200707191042 87 202 4.0 11.0 0.00 0.00 0.00 99 1005.6
20200707191016 87 202 4.0 11.0 0.00 0.00 0.00 99 1005.6
20200707190542 88 190 5.0 11.0 0.00 0.00 0.00 99 1005.5
20200707190516 88 190 5.0 11.0 0.00 0.00 0.00 99 1005.5
20200707190042 89 198 5.0 11.0 0.00 0.00 0.00 99 1005.5
20200707190017 89 198 5.0 11.0 0.00 0.00 0.00 99 1005.5
20200707185542 90 249 4.0 11.0 0.00 0.00 0.00 99 1005.5
20200707185516 90 249 4.0 11.0 0.00 0.00 0.00 99 1005.5
20200707185016 90 160 4.0 11.0 0.00 0.00 0.00 99 1005.3
20200707184542 91 279 5.0 11.0 0.00 0.00 0.00 99 1005.3
20200707184517 91 279 5.0 11.0 0.00 0.00 0.00 99 1005.3
20200707184043 92 222 3.0 11.0 0.00 0.00 0.00 99 1005.2
20200707184016 92 222 3.0 11.0 0.00 0.00 0.00 99 1005.2
20200707183542 93 231 4.0 11.0 0.00 0.00 0.00 99 1005.2
20200707183517 93 231 4.0 11.0 0.00 0.00 0.00 99 1005.2
20200707183016 93 230 2.0 11.0 0.00 0.00 0.00 99 1005.2
20200707182542 92 213 4.0 11.0 0.00 0.00 0.00 99 1005.2
20200707182517 92 213 4.0 11.0 0.00 0.00 0.00 99 1005.2
20200707182041 92 175 4.0 11.0 0.00 0.00 0.00 99 1005.2
20200707182017 92 175 4.0 11.0 0.00 0.00 0.00 99 1005.2
20200707181541 93 232 4.0 11.0 0.00 0.00 0.00 99 1005.2
20200707181516 93 232 4.0 11.0 0.00 0.00 0.00 99 1005.2
20200707181042 93 232 5.0 11.0 0.00 0.00 0.00 99 1005.2
20200707181017 93 232 5.0 11.0 0.00 0.00 0.00 99 1005.2
20200707180541 93 239 5.0 11.0 0.00 0.00 0.00 99 1005.1
20200707180516 93 239 5.0 11.0 0.00 0.00 0.00 99 1005.1
20200707180042 93 249 5.0 11.0 0.00 0.00 0.00 99 1005.1
20200707180017 93 249 5.0 11.0 0.00 0.00 0.00 99 1005.1
20200707175517 93 234 6.0 11.0 0.00 0.00 0.00 99 1005.1
20200707175041 93 232 6.0 11.0 0.00 0.00 0.00 99 1005.0
20200707175017 93 232 6.0 11.0 0.00 0.00 0.00 99 1005.0
20200707174541 94 190 6.0 11.0 0.00 0.00 0.00 99 1005.0
20200707174516 94 190 6.0 11.0 0.00 0.00 0.00 99 1005.0
20200707174041 94 260 8.0 11.0 0.00 0.00 0.00 99 1005.0
20200707174017 94 260 8.0 11.0 0.00 0.00 0.00 99 1005.0
20200707173542 95 252 7.0 11.0 0.00 0.00 0.00 99 1005.0
20200707173516 95 252 7.0 11.0 0.00 0.00 0.00 99 1005.0
20200707173042 95 264 5.0 11.0 0.00 0.00 0.00 99 1005.0
20200707173015 95 264 5.0 11.0 0.00 0.00 0.00 99 1005.0
20200707172516 96 257 7.0 11.0 0.00 0.00 0.00 99 1005.0
20200707172042 97 247 6.0 11.0 0.00 0.00 0.00 99 1005.0
20200707172016 97 247 6.0 11.0 0.00 0.00 0.00 99 1005.0
20200707171542 97 249 9.0 11.0 0.00 0.00 0.00 99 1005.0
20200707171515 97 249 9.0 11.0 0.00 0.00 0.00 99 1005.0
20200707171041 97 241 6.0 10.0 0.00 0.00 0.00 99 1005.0
20200707171016 97 241 6.0 10.0 0.00 0.00 0.00 99 1005.0
20200707170541 97 228 7.0 10.0 0.00 0.00 0.00 99 1005.0
20200707170515 97 228 7.0 10.0 0.00 0.00 0.00 99 1005.0
20200707170016 98 216 8.0 10.0 0.00 0.00 0.00 99 1005.1
20200707165542 98 245 6.0 10.0 0.00 0.00 0.00 99 1005.1
20200707165515 98 245 6.0 10.0 0.00 0.00 0.00 99 1005.1
20200707165041 98 225 7.0 10.0 0.00 0.00 0.00 99 1005.1
20200707165015 98 225 7.0 10.0 0.00 0.00 0.00 99 1005.1
20200707164516 99 263 7.0 10.0 0.00 0.00 0.00 99 1005.1
20200707164042 99 237 7.0 10.0 0.00 0.00 0.00 99 1005.3
20200707164015 99 237 7.0 10.0 0.00 0.00 0.00 99 1005.3
20200707163541 99 233 6.0 10.0 0.00 0.00 0.00 99 1005.3
20200707163517 99 233 6.0 10.0 0.00 0.00 0.00 99 1005.3
20200707163016 100 262 8.0 10.0 0.00 0.00 0.00 99 1005.3
20200707162541 100 218 6.0 10.0 0.00 0.00 0.00 99 1005.3
20200707162515 100 218 6.0 10.0 0.00 0.00 0.00 99 1005.3
20200707162042 100 238 6.0 10.0 0.00 0.00 0.00 99 1005.3
20200707162017 100 238 6.0 10.0 0.00 0.00 0.00 99 1005.3
20200707161516 100 236 6.0 10.0 0.00 0.00 0.00 99 1005.5
20200707161016 100 270 5.0 10.0 0.00 0.00 0.00 99 1005.5
20200707160541 100 231 6.0 10.0 0.00 0.00 0.00 99 1005.5
20200707160517 100 231 6.0 10.0 0.00 0.00 0.00 99 1005.5
20200707160041 101 251 7.0 10.0 0.00 0.00 0.00 99 1005.6
20200707160016 101 251 7.0 10.0 0.00 0.00 0.00 99 1005.6
20200707155541 100 231 5.0 10.0 0.00 0.00 0.00 99 1005.6
20200707155515 100 231 5.0 10.0 0.00 0.00 0.00 99 1005.6
20200707155016 100 214 8.0 10.0 0.00 0.00 0.00 99 1005.6
20200707154516 100 225 6.0 10.0 0.00 0.00 0.00 99 1005.6
20200707154041 100 191 4.0 10.0 0.00 0.00 0.00 99 1005.8
20200707154015 100 191 4.0 10.0 0.00 0.00 0.00 99 1005.8
20200707153541 100 181 6.0 10.0 0.00 0.00 0.00 99 1005.8
20200707153517 100 181 6.0 10.0 0.00 0.00 0.00 99 1005.8
20200707153042 100 235 7.0 9.0 0.00 0.00 0.00 99 1005.8
20200707153015 100 235 7.0 9.0 0.00 0.00 0.00 99 1005.8
20200707152516 101 202 6.0 9.0 0.00 0.00 0.00 99 1006.0
20200707152041 101 192 8.0 9.0 0.00 0.00 0.00 99 1006.0
20200707152016 101 192 8.0 9.0 0.00 0.00 0.00 99 1006.0
20200707151541 101 180 5.0 9.0 0.00 0.00 0.00 99 1006.0
20200707151515 101 180 5.0 9.0 0.00 0.00 0.00 99 1006.0
20200707151041 100 255 5.0 9.0 0.00 0.00 0.00 99 1006.0
20200707151017 100 255 5.0 9.0 0.00 0.00 0.00 99 1006.0
20200707150541 100 202 3.0 9.0 0.00 0.00 0.00 99 1006.0
20200707150516 100 202 3.0 9.0 0.00 0.00 0.00 99 1006.0
20200707150041 100 248 6.0 9.0 0.00 0.00 0.00 99 1006.2
20200707150015 100 248 6.0 9.0 0.00 0.00 0.00 99 1006.2
20200707145541 100 243 5.0 9.0 0.00 0.00 0.00 99 1006.2
20200707145516 100 243 5.0 9.0 0.00 0.00 0.00 99 1006.2
20200707145040 100 253 6.0 9.0 0.00 0.00 0.00 99 1006.4
20200707145018 100 253 6.0 9.0 0.00 0.00 0.00 99 1006.4
20200707144540 100 242 6.0 9.0 0.00 0.00 0.00 99 1006.4
20200707144516 100 242 6.0 9.0 0.00 0.00 0.00 99 1006.4
20200707144041 100 225 6.0 9.0 0.00 0.00 0.00 99 1006.4
20200707144017 100 225 6.0 9.0 0.00 0.00 0.00 99 1006.4
20200707143540 100 261 6.0 9.0 0.00 0.00 0.00 99 1006.4
20200707143516 100 261 6.0 9.0 0.00 0.00 0.00 99 1006.4
20200707143041 99 232 5.0 9.0 0.00 0.00 0.00 99 1006.4
20200707143015 99 232 5.0 9.0 0.00 0.00 0.00 99 1006.4
20200707142541 101 283 7.0 9.0 0.00 0.00 0.00 99 1006.4
20200707142516 101 283 7.0 9.0 0.00 0.00 0.00 99 1006.4
20200707142015 101 249 6.0 9.0 0.00 0.00 0.00 99 1006.4
20200707141540 99 281 3.0 9.0 0.00 0.00 0.00 99 1006.4
20200707141516 99 281 3.0 9.0 0.00 0.00 0.00 99 1006.4
20200707141015 100 236 3.0 9.0 0.00 0.00 0.00 99 1006.4
20200707140541 99 223 3.0 9.0 0.00 0.00 0.00 99 1006.5
20200707140515 99 223 3.0 9.0 0.00 0.00 0.00 99 1006.5
20200707140040 99 258 4.0 9.0 0.00 0.00 0.00 99 1006.5
20200707140015 99 258 4.0 9.0 0.00 0.00 0.00 99 1006.5
20200707135541 99 255 5.0 9.0 0.00 0.00 0.00 99 1006.5
20200707135515 99 255 5.0 9.0 0.00 0.00 0.00 99 1006.5
20200707135041 99 244 6.0 9.0 0.00 0.00 0.00 99 1006.6
20200707135014 99 244 6.0 9.0 0.00 0.00 0.00 99 1006.6
20200707134515 99 252 6.0 9.0 0.00 0.00 0.00 99 1006.6
20200707134041 98 225 6.0 9.0 0.00 0.00 0.00 99 1006.9
20200707134014 98 225 6.0 9.0 0.00 0.00 0.00 99 1006.9
20200707133515 98 237 6.0 9.0 0.00 0.00 0.00 99 1006.9
20200707133015 98 221 5.0 9.0 0.00 0.00 0.00 99 1006.9
20200707132515 97 212 5.0 9.0 0.00 0.00 0.00 99 1006.9
20200707132040 97 225 5.0 9.0 0.00 0.00 0.00 99 1006.9
20200707132016 97 225 5.0 9.0 0.00 0.00 0.00 99 1006.9
20200707131540 97 270 5.0 8.0 0.00 0.00 0.00 99 1007.0
20200707131516 97 270 5.0 8.0 0.00 0.00 0.00 99 1007.0
20200707131041 97 261 6.0 8.0 0.00 0.00 0.00 99 1007.0
20200707131016 97 261 6.0 8.0 0.00 0.00 0.00 99 1007.0
20200707130540 97 222 5.0 8.0 0.00 0.00 0.00 99 1007.2
20200707130516 97 222 5.0 8.0 0.00 0.00 0.00 99 1007.2
20200707130040 97 237 5.0 8.0 0.00 0.00 0.00 99 1007.2
20200707130016 97 237 5.0 8.0 0.00 0.00 0.00 99 1007.2
20200707125540 97 255 6.0 8.0 0.00 0.00 0.00 99 1007.2
20200707125516 97 255 6.0 8.0 0.00 0.00 0.00 99 1007.2
20200707125040 97 213 5.0 8.0 0.00 0.00 0.00 99 1007.2
20200707125016 97 213 5.0 8.0 0.00 0.00 0.00 99 1007.2
20200707124541 95 257 2.0 8.0 0.00 0.00 0.00 99 1007.2
20200707124514 95 257 2.0 8.0 0.00 0.00 0.00 99 1007.2
20200707124041 95 226 3.0 8.0 0.00 0.00 0.00 99 1007.6
20200707124016 95 226 3.0 8.0 0.00 0.00 0.00 99 1007.6
20200707123541 94 260 4.0 8.0 0.00 0.00 0.00 99 1007.6
20200707123516 94 260 4.0 8.0 0.00 0.00 0.00 99 1007.6
20200707123040 94 248 5.0 8.0 0.00 0.00 0.00 99 1007.6
20200707123015 94 248 5.0 8.0 0.00 0.00 0.00 99 1007.6
20200707122540 94 248 6.0 8.0 0.00 0.00 0.00 99 1007.5
20200707122516 94 248 6.0 8.0 0.00 0.00 0.00 99 1007.5
20200707122040 94 216 4.0 8.0 0.00 0.00 0.00 99 1007.5
20200707122016 94 216 4.0 8.0 0.00 0.00 0.00 99 1007.5
20200707121541 94 254 4.0 8.0 0.00 0.00 0.00 99 1007.7
20200707121515 94 254 4.0 8.0 0.00 0.00 0.00 99 1007.7
20200707121041 93 272 4.0 8.0 0.00 0.00 0.00 99 1007.7
20200707121015 93 272 4.0 8.0 0.00 0.00 0.00 99 1007.7
20200707120541 92 221 5.0 8.0 0.00 0.00 0.00 99 1007.7
20200707120515 92 221 5.0 8.0 0.00 0.00 0.00 99 1007.7
20200707120015 92 240 6.0 8.0 0.00 0.00 0.00 99 1007.7
20200707115540 92 247 6.0 8.0 0.00 0.00 0.00 99 1007.7
20200707115516 92 247 6.0 8.0 0.00 0.00 0.00 99 1007.7
20200707115040 91 270 5.0 8.0 0.00 0.00 0.00 99 1007.7
20200707115015 91 270 5.0 8.0 0.00 0.00 0.00 99 1007.7
20200707114540 92 290 5.0 7.0 0.00 0.00 0.00 99 1007.7
20200707114516 92 290 5.0 7.0 0.00 0.00 0.00 99 1007.7
20200707114040 92 270 5.0 7.0 0.00 0.00 0.00 99 1007.7
20200707114015 92 270 5.0 7.0 0.00 0.00 0.00 99 1007.7
20200707113540 91 225 6.0 7.0 0.00 0.00 0.00 99 1007.7
20200707113516 91 225 6.0 7.0 0.00 0.00 0.00 99 1007.7
20200707113015 91 270 5.0 7.0 0.00 0.00 0.00 99 1007.7
20200707112540 91 270 5.0 6.0 0.00 0.00 0.00 99 1007.8
20200707112515 91 270 5.0 6.0 0.00 0.00 0.00 99 1007.8
20200707112040 90 259 4.0 6.0 0.00 0.00 0.00 99 1007.8
20200707112014 90 259 4.0 6.0 0.00 0.00 0.00 99 1007.8
20200707111540 90 215 4.0 6.0 0.00 0.00 0.00 99 1007.9
20200707111515 90 215 4.0 6.0 0.00 0.00 0.00 99 1007.9
20200707111014 90 268 3.0 6.0 0.00 0.00 0.00 99 1007.9
20200707110540 90 274 4.0 6.0 0.00 0.00 0.00 99 1007.9
20200707110515 90 274 4.0 6.0 0.00 0.00 0.00 99 1007.9
20200707110039 89 265 3.0 6.0 0.00 0.00 0.00 99 1008.1
20200707110015 89 265 3.0 6.0 0.00 0.00 0.00 99 1008.1
20200707105539 88 230 3.0 6.0 0.00 0.00 0.00 99 1008.1
20200707105515 88 230 3.0 6.0 0.00 0.00 0.00 99 1008.1
20200707105040 88 226 3.0 6.0 0.00 0.00 0.00 99 1008.1
20200707105014 88 226 3.0 6.0 0.00 0.00 0.00 99 1008.1
20200707104515 88 270 3.0 6.0 0.00 0.00 0.00 99 1008.1
20200707104040 86 355 0.0 6.0 0.00 0.00 0.00 99 1008.0
20200707104014 86 355 0.0 6.0 0.00 0.00 0.00 99 1008.0
20200707103540 87 270 4.0 6.0 0.00 0.00 0.00 99 1008.0
20200707103515 87 270 4.0 6.0 0.00 0.00 0.00 99 1008.0
20200707103014 85 191 1.0 6.0 0.00 0.00 0.00 99 1008.0
20200707102539 86 222 3.0 6.0 0.00 0.00 0.00 99 1008.3
20200707102515 86 222 3.0 6.0 0.00 0.00 0.00 99 1008.3
20200707102040 86 257 3.0 6.0 0.00 0.00 0.00 99 1008.3
20200707102016 86 257 3.0 6.0 0.00 0.00 0.00 99 1008.3
20200707101514 84 265 2.0 6.0 0.00 0.00 0.00 99 1008.0
20200707101040 83 234 3.0 6.0 0.00 0.00 0.00 99 1008.0
20200707101014 83 234 3.0 6.0 0.00 0.00 0.00 99 1008.0
20200707100539 83 300 3.0 6.0 0.00 0.00 0.00 99 1008.0
20200707100515 83 300 3.0 6.0 0.00 0.00 0.00 99 1008.0
20200707100014 82 283 2.0 6.0 0.00 0.00 0.00 99 1008.1
20200707095539 81 34 3.0 6.0 0.00 0.00 0.00 99 1008.1
20200707095515 81 34 3.0 6.0 0.00 0.00 0.00 99 1008.1
20200707095040 81 298 3.0 6.0 0.00 0.00 0.00 99 1008.2
20200707095014 81 298 3.0 6.0 0.00 0.00 0.00 99 1008.2
20200707094540 80 75 3.0 6.0 0.00 0.00 0.00 99 1008.2
20200707094513 80 75 3.0 6.0 0.00 0.00 0.00 99 1008.2
20200707094041 80 238 1.0 6.0 0.00 0.00 0.00 99 1008.1
20200707094015 80 238 1.0 6.0 0.00 0.00 0.00 99 1008.1
20200707093540 80 254 3.0 6.0 0.00 0.00 0.00 99 1008.1
20200707093513 80 254 3.0 6.0 0.00 0.00 0.00 99 1008.1
20200707093042 80 347 1.0 6.0 0.00 0.00 0.00 99 1008.1
20200707093013 80 347 1.0 6.0 0.00 0.00 0.00 99 1008.1
20200707092539 80 289 3.0 6.0 0.00 0.00 0.00 99 1008.2
20200707092515 80 289 3.0 6.0 0.00 0.00 0.00 99 1008.2
20200707092039 84 129 2.0 6.0 0.00 0.00 0.00 99 1008.2
20200707092015 84 129 2.0 6.0 0.00 0.00 0.00 99 1008.2
20200707091539 83 325 1.0 6.0 0.00 0.00 0.00 99 1008.1
20200707091039 81 272 0.0 6.0 0.00 0.00 0.00 99 1008.1
20200707091015 81 272 0.0 6.0 0.00 0.00 0.00 99 1008.1
20200707090539 81 299 3.0 6.0 0.00 0.00 0.00 99 1008.1
20200707090515 81 299 3.0 6.0 0.00 0.00 0.00 99 1008.1
20200707090043 81 358 2.0 6.0 0.00 0.00 0.00 99 1008.1
20200707090013 81 314 3.0 6.0 0.00 0.00 0.00 99 1008.1
20200707085539 80 322 2.0 6.0 0.00 0.00 0.00 99 1008.1
20200707085514 80 322 2.0 6.0 0.00 0.00 0.00 99 1008.1
20200707085040 81 9 2.0 6.0 0.00 0.00 0.00 99 1008.2
20200707085014 81 9 2.0 6.0 0.00 0.00 0.00 99 1008.2
20200707084514 80 286 0.0 6.0 0.00 0.00 0.00 99 1008.2
20200707084039 80 84 0.0 6.0 0.00 0.00 0.00 99 1008.3
20200707084013 80 84 0.0 6.0 0.00 0.00 0.00 99 1008.3
20200707083539 78 235 0.0 6.0 0.00 0.00 0.00 99 1008.3
20200707083515 78 235 0.0 6.0 0.00 0.00 0.00 99 1008.3
20200707083039 77 236 2.0 6.0 0.00 0.00 0.00 99 1008.3
20200707083014 77 236 2.0 6.0 0.00 0.00 0.00 99 1008.3
20200707082539 76 279 2.0 6.0 0.00 0.00 0.00 99 1008.3
20200707082514 76 279 2.0 6.0 0.00 0.00 0.00 99 1008.3
20200707082015 77 226 2.0 6.0 0.00 0.00 0.00 99 1008.3
20200707081539 77 257 0.0 6.0 0.00 0.00 0.00 99 1008.1
20200707081513 77 257 0.0 6.0 0.00 0.00 0.00 99 1008.1
20200707081039 75 250 2.0 6.0 0.00 0.00 0.00 99 1008.1
20200707081017 75 250 2.0 6.0 0.00 0.00 0.00 99 1008.1
20200707080514 76 243 2.0 6.0 0.00 0.00 0.00 99 1008.1
20200707080013 75 206 2.0 6.0 0.00 0.00 0.00 99 1008.1
20200707075538 75 188 3.0 6.0 0.00 0.00 0.00 99 1008.1
20200707075514 75 188 3.0 6.0 0.00 0.00 0.00 99 1008.1
20200707075039 74 195 2.0 6.0 0.00 0.00 0.00 99 1008.2
20200707075015 74 195 2.0 6.0 0.00 0.00 0.00 99 1008.2
20200707074514 73 180 3.0 6.0 0.00 0.00 0.00 99 1008.2
20200707074040 74 228 2.0 6.0 0.00 0.00 0.00 99 1008.1
20200707074013 74 228 2.0 6.0 0.00 0.00 0.00 99 1008.1
20200707073514 73 268 2.0 6.0 0.00 0.00 0.00 99 1008.1
20200707073013 72 198 1.0 6.0 0.00 0.00 0.00 99 1008.1
20200707072539 72 259 2.0 6.0 0.00 0.00 0.00 99 1008.0
20200707072513 72 259 2.0 6.0 0.00 0.00 0.00 99 1008.0
20200707072039 72 180 0.0 6.0 0.00 0.00 0.00 99 1008.0
20200707072014 72 180 0.0 6.0 0.00 0.00 0.00 99 1008.0
20200707071538 70 257 0.0 6.0 0.00 0.00 0.00 99 1007.7
20200707071517 70 257 0.0 6.0 0.00 0.00 0.00 99 1007.7
20200707071013 69 238 0.0 6.0 0.00 0.00 0.00 99 1007.7
20200707070513 69 266 2.0 6.0 0.00 0.00 0.00 99 1007.7
20200707070038 68 240 0.0 6.0 0.00 0.00 0.00 99 1007.7
20200707070014 68 240 0.0 6.0 0.00 0.00 0.00 99 1007.7
20200707065539 68 249 0.0 6.0 0.00 0.00 0.00 99 1007.7
20200707065515 68 249 0.0 6.0 0.00 0.00 0.00 99 1007.7
20200707065013 67 221 0.0 6.0 0.00 0.00 0.00 99 1007.6
20200707064538 66 250 0.0 6.0 0.00 0.00 0.00 99 1007.6
20200707064514 66 250 0.0 6.0 0.00 0.00 0.00 99 1007.6
20200707064040 66 248 0.0 6.0 0.00 0.00 0.00 99 1007.6
20200707064013 66 248 0.0 6.0 0.00 0.00 0.00 99 1007.6
20200707063513 66 225 0.0 6.0 0.00 0.00 0.00 99 1007.6
20200707063040 65 206 0.0 6.0 0.00 0.00 0.00 99 1007.5
20200707063014 65 206 0.0 6.0 0.00 0.00 0.00 99 1007.5
20200707062539 64 225 0.0 6.0 0.00 0.00 0.00 99 1007.5
20200707062512 64 225 0.0 6.0 0.00 0.00 0.00 99 1007.5
20200707062039 64 219 0.0 6.0 0.00 0.00 0.00 99 1007.5
20200707062014 64 219 0.0 6.0 0.00 0.00 0.00 99 1007.5
20200707061538 64 234 0.0 6.0 0.00 0.00 0.00 99 1007.3
20200707061514 64 234 0.0 6.0 0.00 0.00 0.00 99 1007.3
20200707061038 64 249 0.0 6.0 0.00 0.00 0.00 99 1007.3
20200707061014 64 249 0.0 6.0 0.00 0.00 0.00 99 1007.3
20200707060539 64 251 0.0 6.0 0.00 0.00 0.00 99 1007.3
20200707060512 64 251 0.0 6.0 0.00 0.00 0.00 99 1007.3
20200707060039 64 344 0.0 6.0 0.00 0.00 0.00 99 1007.3
20200707060016 64 344 0.0 6.0 0.00 0.00 0.00 99 1007.3
20200707055538 64 7 0.0 6.0 0.00 0.00 0.00 99 1007.3
20200707055514 64 7 0.0 6.0 0.00 0.00 0.00 99 1007.3
20200707055039 63 45 0.0 6.0 0.00 0.00 0.00 99 1007.2
20200707055013 63 45 0.0 6.0 0.00 0.00 0.00 99 1007.2
20200707054538 63 43 0.0 6.0 0.00 0.00 0.00 99 1007.2
20200707054514 63 43 0.0 6.0 0.00 0.00 0.00 99 1007.2
20200707054040 63 49 0.0 6.0 0.00 0.00 0.00 99 1007.2
20200707054013 63 49 0.0 6.0 0.00 0.00 0.00 99 1007.2
20200707053538 63 28 0.0 6.0 0.00 0.00 0.00 99 1007.2
20200707053513 63 28 0.0 6.0 0.00 0.00 0.00 99 1007.2
20200707053013 63 356 0.0 6.0 0.00 0.00 0.00 99 1007.2
20200707052539 63 56 0.0 6.0 0.00 0.00 0.00 99 1007.4
20200707052512 63 56 0.0 6.0 0.00 0.00 0.00 99 1007.4
20200707052038 63 41 0.0 6.0 0.00 0.00 0.00 99 1007.4
20200707052013 63 41 0.0 6.0 0.00 0.00 0.00 99 1007.4
20200707051538 63 112 0.0 6.0 0.00 0.00 0.00 99 1007.2
20200707051513 63 112 0.0 6.0 0.00 0.00 0.00 99 1007.2
20200707051038 63 86 0.0 6.0 0.00 0.00 0.00 99 1007.2
20200707051014 63 86 0.0 6.0 0.00 0.00 0.00 99 1007.2
20200707050538 63 95 1.0 6.0 0.00 0.00 0.00 99 1007.2
20200707050513 63 95 1.0 6.0 0.00 0.00 0.00 99 1007.2
20200707050013 64 224 0.0 6.0 0.00 0.00 0.00 99 1007.2
20200707045537 64 236 0.0 6.0 0.00 0.00 0.00 99 1007.2
20200707045513 64 236 0.0 6.0 0.00 0.00 0.00 99 1007.2
20200707045038 64 241 0.0 6.0 0.00 0.00 0.00 99 1007.2
20200707045014 64 241 0.0 6.0 0.00 0.00 0.00 99 1007.2
20200707044513 64 212 0.0 6.0 0.00 0.00 0.00 99 1007.2
20200707044037 64 317 0.0 6.0 0.00 0.00 0.00 99 1007.3
20200707044013 64 317 0.0 6.0 0.00 0.00 0.00 99 1007.3
20200707043513 64 58 0.0 6.0 0.00 0.00 0.00 99 1007.3
20200707043038 64 281 0.0 6.0 0.00 0.00 0.00 99 1007.3
20200707043014 64 281 0.0 6.0 0.00 0.00 0.00 99 1007.3
20200707042538 64 240 1.0 6.0 0.00 0.00 0.00 99 1007.3
20200707042512 64 240 1.0 6.0 0.00 0.00 0.00 99 1007.3
20200707042038 64 196 1.0 6.0 0.00 0.00 0.00 99 1007.3
20200707042013 64 196 1.0 6.0 0.00 0.00 0.00 99 1007.3
20200707041538 64 206 1.0 6.0 0.00 0.00 0.00 99 1007.3
20200707041512 64 206 1.0 6.0 0.00 0.00 0.00 99 1007.3
20200707041039 64 173 2.0 6.0 0.00 0.00 0.00 99 1007.3
20200707041012 64 173 2.0 6.0 0.00 0.00 0.00 99 1007.3
20200707040538 64 171 2.0 6.0 0.00 0.00 0.00 99 1007.3
20200707040512 64 171 2.0 6.0 0.00 0.00 0.00 99 1007.3
20200707040013 64 202 4.0 6.0 0.00 0.00 0.00 99 1007.4
20200707035537 64 202 4.0 6.0 0.00 0.00 0.00 99 1007.4
20200707035513 64 202 4.0 6.0 0.00 0.00 0.00 99 1007.4
20200707035038 64 191 3.0 6.0 0.00 0.00 0.00 99 1007.4
20200707035014 64 191 3.0 6.0 0.00 0.00 0.00 99 1007.4
20200707034538 64 189 4.0 6.0 0.00 0.00 0.00 99 1007.4
20200707034513 64 189 4.0 6.0 0.00 0.00 0.00 99 1007.4
20200707034038 64 180 4.0 6.0 0.00 0.00 0.00 99 1007.3
20200707034012 64 180 4.0 6.0 0.00 0.00 0.00 99 1007.3
20200707033538 64 202 4.0 6.0 0.00 0.00 0.00 99 1007.3
20200707033514 64 202 4.0 6.0 0.00 0.00 0.00 99 1007.3
20200707033038 64 158 3.0 6.0 0.00 0.00 0.00 99 1007.3
20200707033013 64 158 3.0 6.0 0.00 0.00 0.00 99 1007.3
20200707032513 64 209 4.0 6.0 0.00 0.00 0.00 99 1007.3
20200707032038 64 165 4.0 6.0 0.00 0.00 0.00 99 1007.3
20200707032013 64 165 4.0 6.0 0.00 0.00 0.00 99 1007.3
20200707031538 64 190 3.0 6.0 0.00 0.00 0.00 99 1007.4
20200707031513 64 190 3.0 6.0 0.00 0.00 0.00 99 1007.4
20200707031012 64 159 3.0 6.0 0.00 0.00 0.00 99 1007.4
20200707030537 65 183 4.0 6.0 0.00 0.00 0.00 99 1007.3
20200707030513 65 183 4.0 6.0 0.00 0.00 0.00 99 1007.3
20200707030038 65 174 4.0 6.0 0.00 0.00 0.00 99 1007.2
20200707030013 65 174 4.0 6.0 0.00 0.00 0.00 99 1007.2
20200707025537 65 192 4.0 6.0 0.00 0.00 0.00 99 1007.2
20200707025513 65 192 4.0 6.0 0.00 0.00 0.00 99 1007.2
20200707025038 65 213 3.0 6.0 0.00 0.00 0.00 99 1007.2
20200707025012 65 213 3.0 6.0 0.00 0.00 0.00 99 1007.2
20200707024537 65 221 3.0 6.0 0.00 0.00 0.00 99 1007.2
20200707024513 65 221 3.0 6.0 0.00 0.00 0.00 99 1007.2
20200707024037 65 147 3.0 6.0 0.00 0.00 0.00 99 1007.3
20200707024013 65 147 3.0 6.0 0.00 0.00 0.00 99 1007.3
20200707023538 65 201 3.0 6.0 0.00 0.00 0.00 99 1007.3
20200707023513 65 201 3.0 6.0 0.00 0.00 0.00 99 1007.3
20200707023038 65 181 5.0 6.0 0.00 0.00 0.00 99 1007.3
20200707023013 65 181 5.0 6.0 0.00 0.00 0.00 99 1007.3
20200707022537 65 199 3.0 6.0 0.00 0.00 0.00 99 1007.4
20200707022513 65 199 3.0 6.0 0.00 0.00 0.00 99 1007.4
20200707022012 65 200 3.0 6.0 0.00 0.00 0.00 99 1007.4
20200707021538 65 190 5.0 6.0 0.00 0.00 0.00 99 1007.4
20200707021512 65 190 5.0 6.0 0.00 0.00 0.00 99 1007.4
20200707021038 66 216 2.0 6.0 0.00 0.00 0.00 99 1007.4
20200707021011 66 216 2.0 6.0 0.00 0.00 0.00 99 1007.4
20200707020512 66 214 3.0 6.0 0.00 0.00 0.00 99 1007.4
20200707020012 66 211 3.0 6.0 0.00 0.00 0.00 99 1007.4
20200707015537 66 229 2.0 6.0 0.00 0.00 0.00 99 1007.4
20200707015512 66 229 2.0 6.0 0.00 0.00 0.00 99 1007.4
20200707015012 66 254 1.0 6.0 0.00 0.00 0.00 99 1007.5
20200707014512 67 236 1.0 6.0 0.00 0.00 0.00 99 1007.5
20200707014038 67 198 2.0 6.0 0.00 0.00 0.00 99 1007.6
20200707014013 67 198 2.0 6.0 0.00 0.00 0.00 99 1007.6
20200707013537 67 204 3.0 6.0 0.00 0.00 0.00 99 1007.6
20200707013513 67 204 3.0 6.0 0.00 0.00 0.00 99 1007.6
20200707013037 67 209 3.0 6.0 0.00 0.00 0.00 99 1007.6
20200707013013 67 209 3.0 6.0 0.00 0.00 0.00 99 1007.6